QPF
0.04 0.03 0.04 0.05 0.06 0.08 0.08 0.08 0.10 0.11 0.11 0.10 0.11 0.12 0.10 0.07 0.07 0.07 0.06 0.06 0.06 0.06 0.07 0.06 0.06 0.05 0.03 0.02 0.02 0.03 0.04 0.08 0.08 0.05 0.05 0.07 0.11 0.16 0.11 0.10 0.13 0.13 0.10
0.04 0.03 0.03 0.04 0.06 0.07 0.07 0.07 0.08 0.08 0.09 0.11 0.11 0.10 0.08 0.08 0.07 0.06 0.06 0.07 0.07 0.05 0.05 0.06 0.06 0.05 0.03 0.02 0.03 0.03 0.03 0.06 0.06 0.05 0.07 0.10 0.10 0.10 0.10 0.10 0.11 0.10 0.09
0.03 0.02 0.02 0.03 0.05 0.04 0.06 0.07 0.07 0.07 0.06 0.07 0.08 0.08 0.08 0.08 0.06 0.05 0.04 0.05 0.06 0.06 0.04 0.05 0.06 0.05 0.04 0.03 0.02 0.02 0.02 0.04 0.06 0.07 0.10 0.15 0.09 0.05 0.06 0.07 0.08 0.08 0.09
0.02 0.02 0.02 0.03 0.03 0.03 0.04 0.05 0.05 0.05 0.05 0.05 0.06 0.06 0.07 0.06 0.04 0.05 0.04 0.03 0.04 0.05 0.05 0.05 0.05 0.04 0.03 0.02 0.02 0.02 0.02 0.02 0.04 0.07 0.11 0.15 0.11 0.05 0.05 0.06 0.06 0.06 0.08
0.02 0.02 0.01 0.02 0.02 0.02 0.02 0.03 0.03 0.03 0.03 0.02 0.04 0.05 0.05 0.04 0.05 0.05 0.05 0.04 0.05 0.06 0.06 0.04 0.03 0.03 0.02 0.02 0.02 0.02 0.02 0.02 0.04 0.07 0.09 0.14 0.12 0.07 0.05 0.05 0.05 0.07 0.08
0.02 0.01 0.01 0.01 0.02 0.02 0.02 0.03 0.03 0.02 0.02 0.03 0.03 0.03 0.04 0.03 0.05 0.07 0.06 0.04 0.06 0.06 0.06 0.04 0.03 0.02 0.02 0.02 0.02 0.02 0.02 0.02 0.04 0.07 0.08 0.12 0.11 0.05 0.04 0.03 0.03 0.05 0.06
0.01 0.01 0.01 0.01 0.02 0.02 0.02 0.02 0.03 0.03 0.02 0.03 0.03 0.02 0.02 0.03 0.05 0.09 0.08 0.04 0.04 0.04 0.04 0.03 0.03 0.02 0.01 0.01 0.01 0.02 0.02 0.03 0.04 0.06 0.06 0.07 0.07 0.04 0.02 0.03 0.04 0.05 0.06
0.01 0.02 0.02 0.01 0.02 0.02 0.01 0.01 0.01 0.02 0.02 0.02 0.01 0.02 0.02 0.02 0.04 0.07 0.05 0.03 0.02 0.02 0.02 0.02 0.03 0.02 0.02 0.02 0.02 0.03 0.03 0.02 0.03 0.05 0.06 0.06 0.06 0.04 0.04 0.02 0.02 0.03 0.04
0.02 0.02 0.03 0.03 0.02 0.02 0.01 0.01 0.01 0.02 0.02 0.02 0.01 0.02 0.03 0.04 0.04 0.05 0.04 0.02 0.02 0.02 0.02 0.02 0.02 0.02 0.02 0.02 0.02 0.03 0.03 0.03 0.04 0.06 0.05 0.06 0.07 0.08 0.06 0.05 0.04 0.03 0.05
0.03 0.03 0.03 0.04 0.03 0.04 0.04 0.01 0.02 0.03 0.04 0.03 0.02 0.02 0.04 0.05 0.03 0.03 0.03 0.02 0.03 0.03 0.02 0.02 0.01 0.02 0.02 0.02 0.02 0.02 0.02 0.02 0.04 0.04 0.06 0.07 0.09 0.09 0.08 0.06 0.05 0.04 0.04
0.02 0.02 0.03 0.04 0.03 0.04 0.05 0.02 0.03 0.03 0.03 0.02 0.02 0.02 0.03 0.03 0.02 0.03 0.03 0.04 0.04 0.04 0.04 0.03 0.02 0.03 0.02 0.02 0.01 0.01 0.02 0.03 0.03 0.04 0.08 0.09 0.10 0.09 0.07 0.06 0.05 0.05 0.05
0.01 0.02 0.02 0.02 0.03 0.02 0.02 0.04 0.05 0.04 0.03 0.02 0.02 0.02 0.02 0.03 0.02 0.02 0.03 0.04 0.04 0.04 0.04 0.03 0.03 0.03 0.03 0.02 0.02 0.02 0.03 0.03 0.04 0.05 0.06 0.08 0.10 0.08 0.07 0.06 0.05 0.04 0.05
0.00 0.01 0.02 0.02 0.02 0.02 0.04 0.05 0.05 0.06 0.06 0.05 0.04 0.05 0.04 0.03 0.04 0.03 0.02 0.03 0.03 0.02 0.03 0.03 0.03 0.03 0.03 0.03 0.03 0.03 0.03 0.03 0.04 0.03 0.04 0.08 0.08 0.08 0.07 0.07 0.06 0.05 0.06
0.00 0.00 0.00 0.01 0.00 0.01 0.03 0.06 0.05 0.05 0.06 0.04 0.04 0.03 0.02 0.03 0.02 0.02 0.03 0.05 0.05 0.03 0.04 0.03 0.04 0.02 0.02 0.02 0.02 0.01 0.01 0.02 0.02 0.03 0.03 0.05 0.07 0.09 0.09 0.08 0.07 0.07 0.06
0.01 0.01 0.00 0.00 0.00 0.01 0.02 0.03 0.03 0.03 0.03 0.03 0.04 0.03 0.02 0.03 0.02 0.02 0.02 0.04 0.06 0.06 0.04 0.03 0.02 0.02 0.02 0.02 0.01 0.01 0.01 0.01 0.01 0.02 0.02 0.03 0.06 0.08 0.08 0.08 0.07 0.06 0.05
0.01 0.01 0.01 0.01 0.00 0.01 0.01 0.01 0.01 0.03 0.04 0.04 0.04 0.03 0.03 0.04 0.02 0.02 0.02 0.03 0.05 0.08 0.06 0.02 0.02 0.02 0.02 0.02 0.02 0.01 0.01 0.01 0.01 0.01 0.02 0.03 0.03 0.04 0.05 0.06 0.06 0.06 0.06
0.00 0.01 0.01 0.01 0.01 0.01 0.01 0.01 0.01 0.02 0.02 0.02 0.03 0.02 0.03 0.03 0.02 0.01 0.02 0.03 0.04 0.07 0.08 0.05 0.03 0.02 0.02 0.02 0.01 0.01 0.01 0.01 0.01 0.02 0.02 0.04 0.04 0.03 0.05 0.05 0.06 0.07 0.09
0.01 0.01 0.01 0.00 0.00 0.01 0.01 0.01 0.01 0.01 0.01 0.01 0.02 0.02 0.01 0.02 0.02 0.02 0.02 0.03 0.04 0.05 0.07 0.06 0.04 0.03 0.03 0.02 0.01 0.01 0.01 0.01 0.01 0.02 0.02 0.04 0.07 0.06 0.04 0.03 0.03 0.06 0.08
0.01 0.02 0.02 0.01 0.00 0.00 0.01 0.01 0.01 0.01 0.01 0.01 0.01 0.01 0.01 0.01 0.01 0.01 0.02 0.02 0.03 0.04 0.05 0.04 0.04 0.03 0.03 0.02 0.02 0.01 0.01 0.01 0.02 0.03 0.04 0.06 0.10 0.08 0.06 0.05 0.06 0.07 0.06
0.01 0.01 0.01 0.01 0.01 0.01 0.01 0.01 0.01 0.02 0.01 0.01 0.01 0.01 0.01 0.01 0.00 0.01 0.02 0.02 0.03 0.03 0.04 0.03 0.03 0.03 0.02 0.02 0.01 0.02 0.02 0.02 0.01 0.03 0.05 0.06 0.06 0.05 0.04 0.05 0.07 0.07 0.06
0.01 0.01 0.01 0.02 0.02 0.02 0.02 0.02 0.02 0.02 0.02 0.01 0.01 0.01 0.01 0.01 0.01 0.01 0.01 0.01 0.02 0.02 0.02 0.02 0.02 0.02 0.02 0.02 0.01 0.02 0.02 0.01 0.01 0.01 0.01 0.02 0.03 0.03 0.03 0.04 0.04 0.04 0.02
0.00 0.00 0.01 0.01 0.02 0.03 0.03 0.04 0.03 0.02 0.01 0.01 0.01 0.01 0.00 0.00 0.01 0.01 0.01 0.01 0.01 0.02 0.03 0.02 0.02 0.02 0.02 0.02 0.02 0.03 0.02 0.02 0.01 0.01 0.01 0.01 0.02 0.02 0.02 0.04 0.04 0.04 0.03
0.01 0.01 0.01 0.01 0.02 0.02 0.03 0.04 0.03 0.03 0.02 0.02 0.02 0.02 0.01 0.00 0.01 0.02 0.02 0.03 0.03 0.03 0.03 0.04 0.02 0.02 0.02 0.02 0.02 0.03 0.03 0.03 0.02 0.02 0.02 0.02 0.02 0.01 0.02 0.03 0.04 0.05 0.04
0.02 0.01 0.01 0.01 0.01 0.01 0.02 0.03 0.03 0.03 0.03 0.02 0.01 0.02 0.01 0.00 0.01 0.02 0.02 0.02 0.03 0.03 0.02 0.03 0.03 0.03 0.03 0.03 0.02 0.02 0.02 0.02 0.02 0.03 0.03 0.03 0.03 0.02 0.02 0.02 0.03 0.05 0.06
0.03 0.02 0.02 0.01 0.01 0.01 0.01 0.02 0.04 0.04 0.02 0.01 0.01 0.01 0.01 0.00 0.00 0.02 0.02 0.02 0.02 0.03 0.02 0.02 0.03 0.03 0.03 0.03 0.02 0.02 0.03 0.03 0.02 0.02 0.03 0.03 0.03 0.02 0.02 0.02 0.03 0.04 0.07
0.02 0.03 0.02 0.02 0.01 0.01 0.01 0.03 0.03 0.04 0.04 0.02 0.02 0.02 0.01 0.01 0.01 0.01 0.02 0.03 0.02 0.02 0.03 0.03 0.02 0.02 0.02 0.03 0.03 0.03 0.04 0.04 0.03 0.03 0.03 0.04 0.04 0.03 0.03 0.03 0.03 0.03 0.04
MSLP
1009.46 1009.22 1009.04 1008.95 1008.97 1009.07 1009.23 1009.41 1009.58 1009.73 1009.85 1009.96 1010.07 1010.21 1010.39 1010.61 1010.86 1011.14 1011.40 1011.63 1011.81 1011.94 1012.00 1012.01 1011.98 1011.94 1011.89 1011.85 1011.83 1011.82 1011.81 1011.82 1011.84 1011.88 1011.93 1012.02 1012.14 1012.30 1012.48 1012.67 1012.86 1013.03 1013.19
1009.31 1009.10 1008.98 1008.96 1009.04 1009.21 1009.41 1009.61 1009.78 1009.92 1010.03 1010.13 1010.25 1010.41 1010.62 1010.88 1011.17 1011.47 1011.74 1011.97 1012.13 1012.24 1012.29 1012.30 1012.29 1012.27 1012.25 1012.24 1012.24 1012.26 1012.27 1012.30 1012.33 1012.38 1012.46 1012.56 1012.70 1012.87 1013.05 1013.24 1013.42 1013.58 1013.73
1009.08 1008.93 1008.86 1008.92 1009.08 1009.31 1009.57 1009.80 1009.99 1010.12 1010.23 1010.33 1010.46 1010.64 1010.87 1011.14 1011.44 1011.74 1012.00 1012.21 1012.36 1012.45 1012.49 1012.51 1012.52 1012.53 1012.55 1012.58 1012.63 1012.68 1012.74 1012.81 1012.88 1012.97 1013.08 1013.21 1013.37 1013.54 1013.72 1013.90 1014.06 1014.20 1014.33
1008.81 1008.72 1008.74 1008.88 1009.12 1009.42 1009.72 1009.99 1010.19 1010.33 1010.44 1010.54 1010.67 1010.86 1011.09 1011.37 1011.66 1011.95 1012.19 1012.37 1012.50 1012.58 1012.63 1012.66 1012.70 1012.75 1012.82 1012.90 1013.00 1013.11 1013.22 1013.34 1013.46 1013.61 1013.76 1013.93 1014.11 1014.29 1014.46 1014.61 1014.75 1014.86 1014.96
1008.55 1008.53 1008.63 1008.86 1009.18 1009.54 1009.88 1010.17 1010.38 1010.52 1010.62 1010.72 1010.86 1011.04 1011.27 1011.55 1011.83 1012.09 1012.32 1012.49 1012.61 1012.69 1012.75 1012.82 1012.89 1012.98 1013.10 1013.23 1013.38 1013.53 1013.70 1013.87 1014.06 1014.26 1014.47 1014.69 1014.89 1015.07 1015.22 1015.35 1015.45 1015.52 1015.59
1008.34 1008.40 1008.60 1008.91 1009.29 1009.69 1010.05 1010.33 1010.54 1010.67 1010.76 1010.86 1010.99 1011.17 1011.41 1011.67 1011.95 1012.20 1012.42 1012.59 1012.72 1012.82 1012.92 1013.02 1013.14 1013.28 1013.43 1013.60 1013.78 1013.98 1014.18 1014.41 1014.65 1014.91 1015.17 1015.42 1015.65 1015.83 1015.97 1016.06 1016.12 1016.16 1016.20
1008.23 1008.38 1008.65 1009.02 1009.44 1009.86 1010.21 1010.47 1010.65 1010.76 1010.84 1010.93 1011.07 1011.26 1011.50 1011.78 1012.05 1012.31 1012.54 1012.72 1012.88 1013.02 1013.16 1013.31 1013.48 1013.65 1013.84 1014.03 1014.23 1014.44 1014.67 1014.93 1015.21 1015.52 1015.82 1016.11 1016.36 1016.55 1016.67 1016.73 1016.75 1016.75 1016.77
1008.23 1008.46 1008.79 1009.20 1009.63 1010.02 1010.34 1010.57 1010.71 1010.79 1010.86 1010.96 1011.11 1011.32 1011.58 1011.88 1012.17 1012.45 1012.69 1012.91 1013.11 1013.30 1013.49 1013.70 1013.91 1014.12 1014.33 1014.53 1014.73 1014.94 1015.17 1015.44 1015.74 1016.07 1016.41 1016.73 1017.00 1017.19 1017.30 1017.34 1017.33 1017.30 1017.29
1008.33 1008.62 1008.99 1009.41 1009.82 1010.17 1010.43 1010.60 1010.69 1010.75 1010.83 1010.94 1011.13 1011.37 1011.67 1012.00 1012.32 1012.63 1012.90 1013.16 1013.40 1013.64 1013.90 1014.16 1014.41 1014.66 1014.88 1015.08 1015.27 1015.46 1015.68 1015.94 1016.24 1016.59 1016.94 1017.28 1017.56 1017.76 1017.87 1017.90 1017.87 1017.82 1017.79
1008.47 1008.80 1009.19 1009.59 1009.96 1010.24 1010.44 1010.55 1010.61 1010.66 1010.75 1010.90 1011.14 1011.44 1011.79 1012.16 1012.52 1012.86 1013.16 1013.45 1013.74 1014.03 1014.34 1014.64 1014.95 1015.22 1015.46 1015.66 1015.83 1016.01 1016.20 1016.44 1016.74 1017.08 1017.44 1017.79 1018.08 1018.29 1018.41 1018.43 1018.40 1018.34 1018.30
1008.58 1008.94 1009.33 1009.71 1010.02 1010.24 1010.37 1010.43 1010.47 1010.52 1010.64 1010.85 1011.15 1011.52 1011.93 1012.35 1012.75 1013.12 1013.45 1013.77 1014.09 1014.42 1014.77 1015.13 1015.47 1015.78 1016.04 1016.25 1016.42 1016.58 1016.76 1016.98 1017.25 1017.58 1017.93 1018.27 1018.57 1018.79 1018.92 1018.96 1018.93 1018.88 1018.84
1008.59 1008.98 1009.37 1009.72 1009.98 1010.15 1010.22 1010.25 1010.28 1010.36 1010.53 1010.80 1011.17 1011.62 1012.09 1012.56 1013.00 1013.39 1013.75 1014.09 1014.44 1014.80 1015.19 1015.58 1015.97 1016.31 1016.61 1016.84 1017.03 1017.19 1017.35 1017.55 1017.81 1018.11 1018.44 1018.77 1019.06 1019.29 1019.43 1019.49 1019.48 1019.45 1019.43
1008.45 1008.87 1009.27 1009.61 1009.84 1009.97 1010.02 1010.04 1010.08 1010.19 1010.41 1010.75 1011.20 1011.71 1012.24 1012.76 1013.24 1013.66 1014.04 1014.40 1014.77 1015.15 1015.57 1016.01 1016.43 1016.83 1017.17 1017.44 1017.66 1017.84 1018.01 1018.20 1018.42 1018.69 1018.99 1019.29 1019.56 1019.78 1019.93 1020.01 1020.04 1020.05 1020.06
1008.13 1008.60 1009.03 1009.37 1009.61 1009.74 1009.80 1009.83 1009.90 1010.05 1010.32 1010.72 1011.22 1011.79 1012.37 1012.93 1013.44 1013.89 1014.30 1014.69 1015.08 1015.50 1015.95 1016.42 1016.89 1017.34 1017.73 1018.06 1018.32 1018.54 1018.72 1018.90 1019.11 1019.34 1019.59 1019.84 1020.08 1020.28 1020.43 1020.53 1020.60 1020.65 1020.71
1007.64 1008.17 1008.65 1009.04 1009.32 1009.49 1009.59 1009.66 1009.77 1009.96 1010.27 1010.71 1011.24 1011.84 1012.46 1013.05 1013.60 1014.09 1014.54 1014.97 1015.40 1015.85 1016.34 1016.85 1017.37 1017.87 1018.32 1018.70 1019.02 1019.28 1019.49 1019.67 1019.85 1020.03 1020.22 1020.41 1020.60 1020.76 1020.90 1021.02 1021.13 1021.23 1021.34
1007.01 1007.61 1008.17 1008.64 1008.99 1009.24 1009.41 1009.55 1009.71 1009.94 1010.27 1010.72 1011.26 1011.87 1012.50 1013.13 1013.72 1014.26 1014.76 1015.24 1015.73 1016.23 1016.76 1017.31 1017.87 1018.42 1018.93 1019.37 1019.75 1020.05 1020.29 1020.48 1020.63 1020.77 1020.89 1021.01 1021.12 1021.24 1021.36 1021.48 1021.61 1021.76 1021.93
1006.30 1006.98 1007.62 1008.19 1008.65 1009.01 1009.28 1009.51 1009.73 1009.99 1010.33 1010.77 1011.30 1011.89 1012.52 1013.16 1013.79 1014.39 1014.97 1015.52 1016.07 1016.64 1017.22 1017.81 1018.41 1018.99 1019.54 1020.04 1020.47 1020.81 1021.08 1021.28 1021.42 1021.51 1021.57 1021.62 1021.66 1021.71 1021.79 1021.90 1022.05 1022.24 1022.46
1005.57 1006.30 1007.03 1007.71 1008.30 1008.79 1009.19 1009.51 1009.81 1010.11 1010.45 1010.86 1011.35 1011.91 1012.53 1013.18 1013.84 1014.51 1015.16 1015.80 1016.43 1017.05 1017.68 1018.31 1018.94 1019.55 1020.13 1020.67 1021.14 1021.53 1021.84 1022.05 1022.19 1022.25 1022.26 1022.23 1022.21 1022.20 1022.23 1022.32 1022.47 1022.68 1022.93
1004.84 1005.61 1006.41 1007.19 1007.92 1008.55 1009.09 1009.54 1009.92 1010.26 1010.61 1011.00 1011.44 1011.96 1012.55 1013.20 1013.89 1014.60 1015.33 1016.05 1016.75 1017.44 1018.11 1018.77 1019.42 1020.04 1020.65 1021.21 1021.71 1022.15 1022.49 1022.74 1022.88 1022.94 1022.92 1022.85 1022.77 1022.71 1022.70 1022.76 1022.90 1023.11 1023.37
1004.14 1004.91 1005.75 1006.62 1007.47 1008.25 1008.94 1009.53 1010.01 1010.42 1010.79 1011.15 1011.56 1012.03 1012.58 1013.22 1013.93 1014.68 1015.47 1016.25 1017.01 1017.75 1018.46 1019.13 1019.78 1020.42 1021.03 1021.61 1022.15 1022.62 1023.01 1023.30 1023.48 1023.55 1023.53 1023.45 1023.35 1023.26 1023.22 1023.25 1023.36 1023.56 1023.81
1003.46 1004.19 1005.05 1005.99 1006.94 1007.86 1008.70 1009.43 1010.03 1010.53 1010.94 1011.31 1011.69 1012.12 1012.64 1013.26 1013.96 1014.74 1015.55 1016.38 1017.18 1017.95 1018.67 1019.36 1020.00 1020.63 1021.25 1021.84 1022.41 1022.92 1023.36 1023.70 1023.94 1024.05 1024.06 1024.01 1023.91 1023.82 1023.76 1023.78 1023.88 1024.05 1024.27
1002.78 1003.46 1004.31 1005.27 1006.31 1007.35 1008.33 1009.20 1009.94 1010.54 1011.01 1011.42 1011.80 1012.22 1012.71 1013.30 1013.99 1014.76 1015.58 1016.42 1017.24 1018.02 1018.74 1019.42 1020.06 1020.68 1021.29 1021.89 1022.47 1023.03 1023.52 1023.92 1024.22 1024.40 1024.47 1024.47 1024.41 1024.35 1024.31 1024.33 1024.42 1024.58 1024.78
1002.10 1002.72 1003.52 1004.50 1005.58 1006.71 1007.82 1008.82 1009.69 1010.41 1010.98 1011.44 1011.85 1012.27 1012.75 1013.32 1013.99 1014.74 1015.55 1016.38 1017.19 1017.96 1018.67 1019.34 1019.96 1020.56 1021.16 1021.77 1022.37 1022.95 1023.48 1023.94 1024.30 1024.56 1024.71 1024.78 1024.79 1024.79 1024.80 1024.85 1024.96 1025.11 1025.29
1001.41 1001.97 1002.73 1003.69 1004.80 1005.99 1007.18 1008.30 1009.29 1010.12 1010.79 1011.34 1011.80 1012.25 1012.74 1013.30 1013.95 1014.68 1015.47 1016.27 1017.06 1017.81 1018.50 1019.15 1019.75 1020.34 1020.93 1021.52 1022.12 1022.71 1023.27 1023.76 1024.18 1024.50 1024.73 1024.88 1024.99 1025.07 1025.16 1025.27 1025.41 1025.59 1025.78
1000.71 1001.24 1001.97 1002.91 1004.02 1005.23 1006.48 1007.67 1008.76 1009.69 1010.46 1011.09 1011.62 1012.13 1012.64 1013.21 1013.86 1014.57 1015.33 1016.11 1016.88 1017.61 1018.28 1018.91 1019.50 1020.07 1020.64 1021.21 1021.79 1022.36 1022.91 1023.42 1023.86 1024.23 1024.53 1024.77 1024.97 1025.15 1025.33 1025.53 1025.74 1025.96 1026.18
1000.05 1000.58 1001.29 1002.21 1003.30 1004.50 1005.75 1006.98 1008.12 1009.12 1009.97 1010.68 1011.30 1011.87 1012.44 1013.04 1013.70 1014.42 1015.17 1015.94 1016.69 1017.40 1018.07 1018.68 1019.26 1019.81 1020.35 1020.89 1021.43 1021.96 1022.47 1022.96 1023.39 1023.79 1024.13 1024.44 1024.73 1025.02 1025.30 1025.60 1025.89 1026.19 1026.46
Thickness
5778 5779 5778 5778 5778 5778 5778 5777 5777 5777 5776 5776 5775 5775 5775 5774 5774 5773 5773 5773 5773 5772 5772 5772 5772 5771 5771 5771 5771 5771 5771 5770 5770 5769 5769 5768 5767 5767 5766 5766 5766 5766 5765
5780 5778 5776 5775 5775 5775 5775 5775 5775 5774 5774 5773 5772 5772 5772 5771 5771 5771 5770 5770 5770 5769 5769 5769 5769 5769 5768 5768 5768 5768 5768 5768 5767 5767 5766 5766 5765 5764 5764 5764 5764 5763 5763
5779 5776 5774 5773 5773 5773 5772 5772 5772 5771 5771 5770 5770 5769 5769 5768 5768 5768 5767 5767 5767 5766 5766 5766 5766 5766 5766 5766 5765 5765 5765 5766 5765 5765 5764 5763 5762 5762 5762 5762 5761 5761 5761
5779 5776 5772 5771 5770 5770 5770 5770 5769 5768 5768 5767 5767 5766 5766 5765 5765 5765 5765 5764 5764 5763 5763 5763 5763 5763 5763 5762 5762 5762 5763 5763 5763 5762 5762 5761 5760 5759 5759 5759 5759 5758 5758
5777 5773 5769 5768 5767 5767 5767 5766 5766 5765 5765 5764 5764 5763 5763 5763 5762 5762 5761 5761 5760 5760 5760 5759 5759 5759 5759 5759 5759 5759 5760 5759 5759 5759 5759 5758 5757 5756 5756 5756 5756 5756 5756
5774 5771 5767 5766 5765 5764 5764 5763 5762 5762 5761 5761 5760 5760 5760 5759 5759 5759 5758 5757 5757 5756 5756 5756 5756 5755 5755 5755 5755 5756 5756 5756 5756 5756 5755 5755 5754 5753 5753 5753 5752 5752 5752
5771 5769 5765 5763 5762 5761 5760 5760 5759 5758 5758 5757 5757 5756 5756 5756 5756 5755 5754 5754 5753 5753 5752 5752 5752 5752 5752 5752 5752 5752 5753 5753 5754 5753 5752 5751 5751 5750 5750 5749 5749 5749 5749
5770 5766 5763 5760 5759 5758 5757 5756 5755 5755 5754 5754 5753 5753 5752 5752 5752 5751 5751 5750 5750 5749 5748 5748 5748 5748 5748 5748 5748 5748 5749 5750 5750 5750 5749 5748 5747 5747 5746 5745 5745 5745 5745
5768 5765 5762 5759 5757 5756 5754 5753 5752 5752 5751 5750 5750 5749 5749 5749 5749 5748 5747 5747 5746 5745 5745 5745 5744 5744 5745 5745 5745 5745 5745 5746 5746 5745 5745 5744 5743 5743 5742 5741 5741 5741 5741
5765 5763 5761 5759 5756 5754 5752 5750 5750 5749 5748 5748 5747 5746 5746 5746 5745 5744 5743 5743 5742 5742 5742 5741 5741 5741 5741 5741 5741 5741 5741 5742 5741 5741 5740 5740 5739 5739 5738 5737 5737 5737 5737
5760 5760 5759 5757 5755 5753 5751 5748 5747 5746 5745 5745 5744 5744 5743 5743 5742 5741 5741 5740 5739 5739 5738 5738 5738 5738 5737 5737 5738 5738 5737 5737 5737 5736 5735 5735 5735 5734 5734 5734 5733 5733 5733
5753 5755 5756 5755 5753 5751 5750 5746 5745 5744 5743 5743 5742 5742 5741 5740 5740 5738 5737 5737 5736 5735 5735 5735 5734 5734 5734 5734 5734 5734 5733 5733 5732 5730 5730 5730 5730 5730 5730 5729 5729 5729 5729
5752 5752 5752 5752 5751 5749 5746 5745 5743 5742 5741 5741 5740 5739 5738 5737 5736 5735 5734 5733 5732 5732 5732 5731 5731 5731 5731 5731 5730 5730 5729 5729 5727 5725 5725 5725 5725 5725 5725 5725 5725 5724 5724
5749 5748 5749 5749 5747 5745 5743 5742 5740 5739 5738 5737 5737 5736 5735 5734 5733 5732 5731 5730 5730 5729 5729 5728 5728 5728 5728 5727 5727 5726 5725 5724 5722 5721 5720 5720 5720 5720 5720 5720 5720 5719 5719
5746 5745 5746 5745 5744 5742 5740 5739 5737 5736 5735 5734 5733 5733 5731 5730 5729 5728 5728 5726 5726 5726 5725 5725 5724 5723 5722 5722 5722 5721 5720 5719 5718 5717 5715 5715 5715 5715 5715 5715 5715 5715 5714
5744 5743 5742 5742 5741 5739 5737 5735 5734 5733 5732 5731 5729 5729 5727 5726 5725 5724 5723 5722 5721 5721 5721 5720 5719 5717 5716 5716 5715 5715 5714 5714 5713 5712 5711 5710 5710 5710 5710 5710 5710 5710 5709
5743 5742 5739 5739 5738 5735 5734 5733 5731 5730 5729 5727 5725 5725 5724 5722 5721 5720 5718 5717 5716 5716 5716 5715 5713 5712 5710 5710 5709 5709 5708 5708 5708 5708 5707 5706 5705 5705 5705 5705 5706 5705 5705
5742 5739 5737 5737 5734 5732 5731 5729 5728 5726 5725 5723 5722 5721 5720 5718 5717 5715 5713 5712 5712 5711 5710 5708 5707 5704 5703 5702 5701 5702 5702 5702 5702 5703 5703 5702 5701 5701 5700 5700 5700 5700 5700
5740 5737 5733 5732 5730 5729 5727 5726 5724 5723 5721 5719 5718 5717 5715 5714 5713 5710 5709 5708 5707 5706 5704 5703 5701 5699 5696 5695 5696 5696 5696 5696 5697 5697 5697 5698 5698 5697 5696 5695 5695 5695 5695
5738 5736 5732 5730 5728 5726 5724 5722 5720 5718 5717 5716 5714 5713 5711 5710 5709 5707 5705 5704 5702 5700 5698 5697 5694 5694 5692 5691 5692 5690 5691 5691 5692 5692 5692 5693 5693 5692 5691 5691 5690 5689 5689
5735 5732 5729 5726 5725 5722 5718 5715 5712 5710 5711 5710 5710 5709 5708 5706 5705 5703 5701 5699 5697 5694 5693 5692 5689 5687 5686 5687 5684 5681 5684 5686 5686 5687 5687 5687 5687 5687 5687 5687 5687 5686 5684
5732 5730 5727 5724 5722 5720 5717 5714 5711 5709 5707 5707 5706 5705 5704 5703 5701 5700 5697 5694 5692 5690 5688 5687 5685 5682 5681 5682 5678 5674 5670 5672 5677 5681 5681 5681 5681 5682 5682 5683 5683 5682 5680
5727 5726 5725 5722 5720 5717 5715 5712 5709 5706 5704 5701 5700 5699 5700 5699 5697 5695 5693 5691 5688 5686 5683 5682 5681 5678 5674 5676 5677 5672 5666 5662 5666 5671 5674 5675 5675 5675 5676 5677 5677 5676 5675
5726 5725 5723 5720 5718 5716 5713 5708 5704 5699 5696 5696 5696 5695 5695 5695 5693 5691 5689 5687 5685 5683 5680 5679 5678 5676 5673 5670 5671 5672 5670 5667 5662 5660 5665 5668 5669 5669 5670 5671 5671 5671 5670
5724 5722 5720 5717 5715 5713 5710 5706 5702 5698 5696 5695 5694 5692 5691 5690 5689 5688 5686 5684 5681 5679 5677 5676 5674 5673 5671 5668 5666 5665 5665 5664 5664 5658 5654 5658 5661 5663 5664 5665 5665 5665 5665
5720 5718 5717 5714 5712 5710 5708 5704 5700 5696 5694 5691 5689 5687 5686 5685 5685 5684 5682 5680 5678 5675 5674 5672 5671 5669 5668 5666 5664 5662 5660 5658 5656 5655 5652 5651 5652 5655 5658 5659 5659 5659 5659